User: anonymous   Login
Location: NJAA Observatory
(40.6819°N, 74.8979°W)
Time: 02:30:25
(UTC-04:00)
Language:

Cosmos 1633 - Orbit

View from above orbital plane
View from above orbital plane
View from above satellite
View from above satellite

Ground track
Ground track

The orbit data is extracted from the following two-line orbital elements,

1 15592U 85020A   15181.80505664  .00002797  00000-0  11324-3 0  9996
2 15592 082.5401 316.1075 0015465 181.5810 335.2336 15.24154683654843
Epoch (UTC): 30 June 2015 19:19:16
Eccentricity: 0.0015465
inclination: 82.5401°
perigee height: 483 km
apogee height: 504 km
right ascension of ascending node: 316.1075°
argument of perigee: 181.5810°
revolutions per day: 15.24154683
mean anomaly at epoch: 335.2336°
orbit number at epoch: 65484

The dashed part of the orbit path shows where the satellite is in the earth's shadow,  

DLR